Temperature
4 3 2 2 1 0 -0 -1 -2 -2 -3 -4 -5 -5 -6 -7 -8 -8 -9 -9 -9 -9 -9 -9 -10 -10 -10 -11 -11 -11 -11 -11 -12 -11 -11 -10 -10 -9 -9 -8 -8 -7 -6
4 3 2 2 1 0 -0 -1 -2 -2 -3 -4 -5 -5 -6 -7 -8 -8 -8 -9 -9 -9 -9 -9 -9 -10 -10 -11 -11 -11 -11 -11 -11 -11 -11 -10 -10 -10 -10 -9 -9 -8 -7
4 3 2 1 1 0 -0 -1 -2 -2 -3 -4 -5 -5 -6 -7 -7 -8 -8 -8 -8 -9 -9 -9 -10 -10 -10 -11 -11 -11 -11 -11 -11 -11 -11 -11 -11 -10 -10 -10 -9 -8 -7
4 3 2 2 1 0 -1 -1 -2 -2 -3 -4 -4 -5 -6 -7 -7 -8 -8 -8 -8 -8 -9 -9 -10 -10 -10 -10 -11 -10 -10 -11 -11 -11 -11 -11 -11 -11 -11 -10 -10 -8 -8
4 3 2 1 1 -0 -1 -1 -2 -3 -3 -4 -4 -5 -6 -6 -7 -7 -8 -8 -8 -8 -9 -9 -10 -10 -10 -10 -10 -10 -10 -10 -11 -11 -11 -11 -12 -11 -11 -11 -11 -10 -8
4 3 2 1 0 -0 -1 -2 -2 -3 -3 -4 -4 -5 -5 -6 -7 -8 -9 -8 -8 -8 -9 -9 -10 -10 -10 -10 -10 -10 -10 -10 -11 -11 -11 -12 -12 -12 -11 -11 -11 -11 -10
4 3 2 1 0 -0 -1 -2 -2 -3 -3 -4 -4 -5 -5 -6 -7 -8 -8 -8 -8 -9 -9 -9 -10 -10 -10 -10 -10 -10 -11 -11 -11 -11 -12 -12 -12 -12 -12 -11 -11 -11 -10
5 3 2 1 0 -1 -1 -2 -2 -3 -3 -4 -4 -5 -5 -6 -7 -8 -8 -8 -9 -9 -9 -9 -10 -10 -10 -9 -9 -10 -11 -11 -11 -12 -12 -12 -12 -12 -11 -11 -11 -11 -10
5 3 2 1 0 -1 -1 -1 -2 -3 -3 -4 -4 -5 -5 -6 -6 -7 -9 -9 -9 -9 -9 -9 -10 -10 -10 -9 -10 -10 -11 -11 -11 -12 -12 -12 -12 -12 -12 -11 -11 -11 -10
6 4 3 1 0 -0 -1 -2 -2 -3 -3 -4 -4 -5 -6 -6 -6 -7 -9 -9 -9 -9 -9 -9 -10 -10 -9 -10 -10 -11 -11 -11 -11 -11 -12 -12 -12 -12 -12 -12 -12 -11 -11
6 4 2 1 0 -1 -1 -2 -2 -3 -3 -4 -4 -5 -6 -6 -6 -7 -8 -9 -9 -9 -9 -10 -10 -10 -10 -10 -11 -11 -11 -11 -12 -12 -12 -12 -12 -12 -12 -11 -11 -11 -11
5 3 2 1 -0 -1 -1 -2 -2 -3 -3 -4 -4 -5 -6 -6 -7 -7 -8 -9 -9 -9 -10 -10 -10 -10 -10 -11 -11 -11 -11 -11 -12 -12 -12 -12 -12 -12 -11 -11 -11 -11 -10
4 3 2 1 -0 -1 -1 -2 -2 -3 -3 -4 -4 -5 -5 -6 -7 -8 -8 -9 -9 -10 -10 -10 -10 -10 -10 -10 -11 -11 -11 -11 -12 -12 -12 -12 -12 -12 -11 -11 -10 -10 -9
4 3 2 1 -0 -1 -1 -2 -2 -3 -3 -4 -4 -5 -5 -6 -7 -8 -8 -9 -9 -9 -9 -9 -9 -9 -10 -10 -10 -11 -11 -12 -12 -12 -12 -12 -12 -11 -11 -11 -10 -9 -8
3 2 1 0 -0 -1 -1 -2 -2 -2 -3 -4 -4 -5 -6 -6 -7 -8 -9 -9 -9 -10 -9 -9 -9 -9 -9 -10 -10 -10 -11 -11 -11 -12 -12 -12 -11 -11 -11 -10 -10 -9 -9
2 1 1 0 -1 -1 -1 -2 -2 -3 -3 -4 -4 -5 -6 -6 -8 -9 -9 -9 -9 -9 -9 -9 -9 -9 -10 -10 -11 -11 -11 -11 -11 -12 -12 -12 -11 -11 -11 -10 -10 -9 -8
2 1 0 -0 -1 -1 -1 -2 -2 -3 -4 -4 -5 -5 -6 -7 -8 -8 -9 -9 -9 -9 -9 -9 -9 -10 -10 -10 -10 -11 -11 -11 -11 -11 -11 -12 -11 -11 -11 -10 -10 -9 -8
1 -0 -1 -1 -1 -1 -1 -2 -2 -3 -3 -4 -5 -5 -6 -7 -7 -8 -8 -8 -9 -9 -9 -9 -9 -10 -10 -10 -10 -11 -11 -11 -11 -11 -11 -11 -11 -11 -11 -10 -10 -9 -8
-0 -1 -2 -2 -2 -1 -1 -2 -2 -3 -3 -4 -5 -5 -6 -7 -7 -8 -8 -8 -8 -8 -9 -9 -9 -10 -10 -10 -10 -10 -11 -11 -11 -11 -11 -11 -11 -11 -11 -10 -10 -9 -8
-1 -2 -3 -3 -3 -2 -2 -2 -3 -3 -3 -4 -5 -5 -6 -6 -7 -7 -8 -8 -8 -8 -9 -9 -9 -10 -10 -10 -10 -10 -11 -11 -11 -11 -11 -11 -11 -11 -11 -10 -10 -9 -8
-2 -3 -5 -4 -4 -3 -2 -2 -2 -3 -3 -4 -4 -5 -6 -6 -7 -7 -8 -8 -8 -8 -8 -9 -9 -9 -10 -10 -10 -10 -10 -10 -11 -11 -11 -11 -11 -11 -10 -10 -10 -9 -8
-3 -4 -5 -5 -4 -3 -3 -2 -3 -3 -3 -4 -4 -5 -6 -6 -7 -7 -8 -8 -8 -8 -8 -8 -9 -9 -9 -10 -10 -10 -10 -10 -10 -11 -11 -11 -11 -11 -10 -10 -10 -9 -8
-4 -5 -5 -5 -5 -4 -3 -3 -3 -3 -3 -4 -4 -5 -6 -6 -7 -7 -8 -8 -8 -8 -8 -8 -9 -9 -9 -10 -10 -10 -10 -10 -10 -11 -11 -11 -11 -11 -10 -10 -10 -9 -8
-5 -5 -6 -6 -5 -5 -4 -3 -3 -3 -3 -4 -4 -5 -5 -6 -7 -7 -8 -8 -8 -8 -8 -8 -9 -9 -9 -10 -10 -10 -10 -10 -11 -11 -11 -11 -11 -10 -10 -10 -10 -9 -9
-5 -6 -6 -6 -6 -5 -4 -3 -3 -3 -3 -4 -4 -5 -5 -6 -7 -7 -8 -8 -8 -8 -8 -9 -9 -9 -9 -9 -10 -10 -10 -10 -10 -10 -11 -11 -11 -10 -10 -10 -10 -10 -9
-6 -6 -7 -7 -6 -5 -5 -4 -3 -3 -3 -4 -4 -5 -5 -6 -6 -7 -8 -8 -8 -8 -8 -9 -9 -9 -9 -9 -9 -10 -10 -10 -10 -10 -11 -11 -11 -10 -10 -10 -10 -10 -9
Wind_Speed
15 13 11 10 10 9 8 9 8 7 7 7 7 8 9 9 8 9 10 10 11 12 13 13 15 13 11 10 10 10 11 11 14 14 11 10 12 13 13 12 14 12 13
14 13 12 10 9 9 9 9 7 8 7 7 7 8 9 9 9 9 11 12 12 14 15 15 16 13 13 11 11 11 11 12 12 16 13 10 11 11 11 12 12 12 11
13 13 12 11 11 10 10 8 8 8 7 7 7 9 9 10 10 10 11 12 13 14 15 15 16 14 14 12 12 12 11 12 10 12 14 11 9 9 10 11 12 10 12
14 14 14 13 12 11 9 8 8 7 7 8 8 9 10 10 10 11 12 13 14 14 14 14 14 13 14 14 13 13 12 11 10 11 12 11 9 8 7 9 11 8 10
15 15 15 12 11 9 9 8 8 7 8 7 8 9 9 9 9 11 12 12 12 12 11 11 13 16 19 16 13 11 10 9 9 10 11 11 10 8 8 8 11 11 10
16 16 13 11 11 10 9 8 8 8 7 7 8 9 10 10 16 21 16 9 8 9 10 10 11 14 17 22 24 22 18 12 10 9 10 11 11 10 10 10 10 11 8
16 14 13 13 12 11 10 9 9 8 7 8 8 8 10 12 19 19 20 10 7 8 8 9 10 12 17 12 18 19 16 19 19 13 11 11 12 11 12 13 11 11 11
16 15 14 14 13 11 10 10 9 7 7 7 8 8 9 11 17 18 18 7 7 8 8 9 10 12 14 16 10 8 9 11 14 11 10 12 12 12 12 12 12 11 11
17 17 16 15 14 12 12 11 9 7 7 7 7 8 8 10 15 16 16 4 6 8 8 9 10 11 20 22 9 7 9 10 13 17 18 17 19 18 15 9 7 8 10
20 18 16 15 14 14 13 11 8 7 8 7 7 7 7 8 12 14 14 4 6 7 6 8 15 17 21 20 7 7 10 9 7 10 12 14 12 13 16 8 7 8 7
16 15 15 15 15 13 11 9 8 8 7 6 6 6 6 8 10 13 14 5 5 6 6 7 9 20 20 19 16 8 14 12 8 9 9 9 8 7 8 8 8 8 9
14 15 15 15 13 12 11 10 8 8 7 6 6 6 5 6 8 10 13 12 11 5 6 7 10 18 18 18 14 16 20 16 8 9 9 9 9 8 8 9 9 10 11
15 16 14 14 13 12 12 10 8 7 6 6 5 5 5 4 6 12 12 13 14 7 6 12 15 17 15 12 16 19 15 10 9 9 10 10 9 9 9 8 8 9 11
17 16 14 14 14 12 10 10 9 8 7 6 6 6 5 4 5 6 6 7 9 8 6 9 13 14 12 13 13 11 9 9 10 9 10 9 9 9 8 8 8 7 6
16 15 15 14 14 13 12 11 10 9 9 8 7 6 5 5 7 10 7 4 4 5 4 3 5 7 7 8 8 8 8 9 10 9 10 10 10 10 9 8 7 7 5
16 15 13 12 12 11 11 9 14 13 14 15 12 9 8 9 10 10 10 10 9 9 5 4 5 6 8 9 10 10 9 9 9 9 10 10 10 11 10 9 8 7 7
17 15 13 13 13 12 11 11 9 10 13 13 13 12 10 8 8 8 9 7 6 6 3 4 5 6 7 8 9 9 9 10 9 9 9 10 10 10 10 10 9 9 8
16 18 16 13 13 13 12 11 10 9 8 6 8 10 9 8 7 7 6 3 3 3 2 4 5 6 7 8 9 9 9 9 8 8 8 9 9 10 10 10 9 10 9
15 12 12 12 12 12 11 10 9 9 8 6 4 5 8 7 5 5 3 1 3 3 4 4 5 6 7 7 8 9 9 9 9 8 8 8 9 9 10 10 10 14 11
14 20 16 12 12 11 11 11 10 9 9 7 7 6 4 4 3 3 3 3 3 4 4 4 5 6 6 7 8 8 9 8 8 7 7 7 8 8 10 11 11 10 9
11 15 22 14 11 12 12 11 11 10 9 8 7 8 10 6 5 5 4 4 4 4 4 4 5 6 6 6 7 8 9 8 7 7 7 7 8 8 8 9 10 10 10
11 11 12 12 12 11 11 11 10 10 10 9 6 7 12 6 5 4 4 4 4 4 4 4 5 5 6 6 7 8 8 8 7 7 7 7 7 8 8 9 10 10 10
11 12 12 12 11 15 14 10 10 10 10 9 8 7 6 6 5 5 5 4 4 4 4 4 5 5 6 6 7 7 7 7 6 6 6 6 7 7 8 9 11 12 11
12 14 14 13 12 12 12 12 11 11 10 9 9 8 7 6 6 5 5 4 3 4 4 4 5 7 9 8 7 7 7 6 5 4 4 5 6 7 7 8 10 11 11
12 13 13 13 13 13 12 12 11 11 10 10 9 8 7 6 6 5 4 4 4 4 5 5 4 6 9 10 10 9 11 9 6 3 2 3 5 7 7 8 9 10 10
13 13 12 12 12 12 12 12 11 11 10 10 9 8 8 7 6 5 4 4 3 4 4 4 5 7 9 9 11 12 10 7 4 5 3 3 5 6 7 7 9 9 10
Wind_Direction
194 195 195 196 199 202 211 222 227 234 241 244 249 255 261 264 263 263 266 271 271 276 278 276 275 274 274 274 273 273 275 276 282 290 290 294 295 298 302 303 303 299 298
194 192 197 195 195 204 216 223 225 235 240 244 251 259 264 268 264 264 271 278 274 278 279 278 278 278 274 274 273 272 275 275 278 289 295 294 291 294 295 301 305 303 298
190 192 196 198 200 209 216 222 226 233 242 249 252 260 265 268 269 268 268 272 274 274 277 277 277 277 276 273 271 273 274 277 276 284 291 292 288 290 295 298 297 292 295
191 194 200 203 205 208 212 218 225 231 243 252 256 261 266 269 271 272 271 272 273 275 276 275 275 274 272 271 272 269 272 275 276 280 287 290 288 286 286 298 301 294 294
193 198 205 202 199 202 209 217 224 232 246 251 261 268 271 274 272 268 266 270 273 279 279 276 278 285 288 287 283 279 279 278 283 286 289 291 293 296 295 295 295 299 294
196 202 200 194 197 203 208 215 225 235 245 254 261 269 275 280 290 297 298 281 281 284 287 288 290 291 294 299 301 301 302 302 297 288 289 288 289 288 288 289 292 295 296
198 198 194 194 200 205 208 214 226 235 244 255 261 265 271 280 295 301 305 305 289 286 286 291 300 299 304 292 291 296 300 301 301 296 289 283 284 283 282 283 279 277 275
198 197 194 193 200 201 204 218 227 230 239 251 259 264 270 283 300 305 309 311 290 286 283 284 288 288 294 297 286 277 273 281 287 288 273 274 276 276 269 271 275 277 273
201 200 196 194 196 199 210 220 223 225 237 244 253 261 269 284 301 306 312 289 290 289 287 291 300 291 301 316 323 299 295 291 301 307 306 304 304 305 299 291 284 282 285
205 201 194 193 196 202 211 215 215 220 234 244 253 256 265 275 297 307 313 289 293 294 291 295 312 315 319 332 335 312 307 304 304 309 309 307 302 299 301 291 275 271 273
199 192 190 192 197 202 205 209 212 219 229 238 251 259 263 274 296 308 313 310 298 302 308 309 310 321 331 337 338 320 319 335 323 309 304 300 297 288 282 271 257 253 253
186 188 190 192 194 197 200 206 209 212 223 236 246 261 255 268 290 301 313 320 323 305 305 305 310 326 336 339 335 332 339 340 323 316 315 313 310 304 294 283 269 256 247
185 191 191 191 193 192 195 200 204 207 215 228 232 251 262 262 280 301 310 318 323 321 305 320 328 334 337 334 332 339 342 331 323 324 321 316 310 300 298 294 284 269 258
190 192 190 190 192 195 197 199 203 205 209 218 226 238 250 262 272 280 277 289 307 314 314 324 333 335 336 333 335 333 329 323 328 323 317 315 314 312 310 308 305 301 287
193 193 191 192 191 194 199 203 203 206 203 204 213 219 228 249 267 286 297 281 286 299 327 328 329 331 333 331 329 327 327 328 329 326 323 324 324 324 322 320 313 309 291
194 195 193 191 191 192 194 203 217 214 222 225 222 218 226 244 276 295 306 314 322 331 347 327 327 327 327 327 327 327 328 330 329 328 328 327 327 327 325 325 324 319 310
198 193 191 189 189 189 190 192 199 214 221 223 227 232 238 252 275 291 299 315 326 341 339 312 314 317 319 320 320 321 323 324 323 325 327 328 329 328 328 329 329 326 319
201 197 191 190 188 188 189 190 190 189 195 211 221 228 234 246 265 282 295 319 318 323 289 293 302 308 312 315 317 319 320 321 323 325 325 327 329 329 330 331 330 327 323
200 199 193 187 186 185 184 183 185 188 191 187 184 218 225 233 249 268 282 233 262 280 286 289 294 301 306 310 313 315 316 317 319 321 323 326 328 330 330 330 328 329 330
202 201 191 185 184 183 181 182 184 187 190 190 195 198 192 196 211 235 237 239 249 265 276 285 291 295 301 304 308 312 315 315 317 318 321 324 325 328 329 329 330 329 326
197 200 196 189 187 186 184 185 185 185 190 193 196 196 193 193 206 218 230 237 243 257 270 280 288 294 297 301 304 307 311 312 314 316 320 322 325 329 328 328 329 329 329
192 193 190 186 186 188 187 186 184 185 190 190 186 199 206 190 195 211 225 236 242 248 258 271 281 285 291 298 303 308 311 312 314 317 318 321 324 327 330 333 335 335 336
189 189 189 186 185 191 189 186 185 187 189 187 183 186 191 188 198 209 221 230 241 254 264 270 283 290 295 299 300 302 304 306 307 309 315 323 328 331 334 335 335 338 340
189 189 189 187 186 188 187 187 188 188 187 185 183 186 188 190 195 205 211 222 237 254 265 275 282 289 298 306 307 306 299 294 296 301 309 320 326 328 332 336 336 339 341
189 189 190 188 188 189 189 187 188 187 186 186 184 185 183 184 190 198 203 214 233 254 270 280 284 293 301 307 308 305 312 315 320 335 333 330 328 327 331 336 340 340 343
189 190 190 189 188 189 189 188 188 186 186 185 182 179 179 181 185 190 196 207 229 254 271 282 286 296 302 305 307 313 321 331 350 359 14 343 337 338 343 342 342 349 350
Height
1484 1486 1488 1489 1489 1489 1489 1488 1487 1485 1483 1480 1477 1473 1469 1466 1462 1458 1453 1450 1445 1441 1437 1432 1427 1423 1417 1413 1408 1404 1399 1394 1386 1378 1375 1370 1366 1362 1358 1354 1351 1349 1347
1477 1479 1480 1482 1482 1482 1482 1482 1481 1479 1477 1474 1471 1467 1464 1460 1456 1452 1447 1444 1439 1435 1430 1425 1420 1415 1410 1406 1401 1397 1392 1388 1382 1374 1368 1364 1360 1357 1352 1348 1345 1343 1341
1470 1471 1473 1474 1475 1475 1476 1475 1474 1473 1471 1468 1465 1461 1458 1454 1450 1446 1442 1437 1433 1429 1424 1419 1413 1408 1403 1399 1394 1390 1385 1381 1376 1370 1363 1358 1354 1351 1347 1342 1339 1336 1334
1461 1462 1464 1466 1468 1469 1469 1469 1468 1467 1465 1462 1459 1456 1452 1448 1443 1439 1436 1432 1428 1423 1418 1413 1407 1402 1397 1392 1387 1383 1379 1374 1369 1364 1358 1353 1348 1345 1342 1337 1332 1329 1327
1452 1454 1456 1459 1461 1462 1462 1462 1462 1460 1459 1456 1454 1450 1446 1442 1437 1433 1430 1426 1422 1417 1412 1407 1402 1397 1392 1387 1382 1377 1373 1368 1363 1358 1352 1347 1343 1339 1336 1332 1328 1323 1320
1443 1445 1449 1451 1453 1454 1455 1456 1455 1454 1453 1451 1448 1444 1440 1436 1432 1428 1426 1422 1417 1412 1407 1402 1396 1391 1385 1381 1377 1372 1368 1363 1357 1352 1347 1342 1337 1334 1330 1327 1324 1320 1316
1434 1437 1440 1443 1445 1447 1448 1449 1449 1448 1447 1445 1442 1439 1435 1431 1426 1423 1421 1417 1412 1407 1402 1397 1391 1386 1381 1375 1369 1365 1361 1357 1353 1348 1341 1336 1331 1328 1325 1321 1318 1315 1311
1426 1428 1431 1434 1437 1439 1441 1441 1442 1442 1441 1439 1437 1433 1429 1425 1421 1418 1415 1412 1407 1403 1398 1392 1386 1380 1375 1370 1364 1359 1354 1350 1345 1340 1335 1330 1325 1322 1319 1316 1313 1309 1305
1416 1419 1422 1426 1429 1431 1433 1435 1436 1436 1435 1433 1431 1427 1424 1420 1416 1413 1410 1406 1402 1398 1393 1388 1382 1377 1371 1367 1360 1354 1349 1343 1338 1333 1329 1323 1319 1315 1313 1310 1307 1304 1300
1406 1410 1414 1418 1421 1423 1426 1428 1429 1429 1429 1427 1425 1422 1419 1415 1411 1408 1405 1402 1397 1393 1388 1384 1379 1374 1369 1363 1357 1350 1344 1338 1332 1326 1321 1316 1312 1308 1305 1303 1301 1299 1297
1399 1402 1406 1409 1413 1417 1420 1422 1423 1423 1423 1422 1420 1417 1414 1410 1406 1403 1401 1398 1393 1389 1384 1379 1374 1370 1366 1360 1354 1348 1342 1336 1328 1322 1316 1311 1306 1302 1299 1297 1295 1293 1291
1392 1394 1398 1402 1406 1409 1412 1415 1416 1417 1417 1416 1414 1412 1409 1406 1402 1399 1396 1394 1390 1385 1381 1376 1371 1367 1362 1356 1351 1346 1340 1332 1325 1318 1312 1307 1302 1297 1294 1291 1288 1286 1284
1383 1385 1389 1394 1398 1401 1405 1407 1409 1410 1410 1410 1409 1407 1405 1402 1398 1395 1392 1389 1386 1382 1378 1374 1369 1364 1359 1353 1348 1343 1336 1329 1323 1316 1310 1304 1299 1294 1289 1286 1283 1280 1278
1373 1376 1380 1384 1389 1393 1396 1399 1402 1403 1404 1404 1403 1401 1399 1397 1394 1391 1388 1385 1381 1378 1374 1370 1366 1362 1357 1352 1346 1340 1334 1328 1322 1316 1309 1302 1296 1291 1286 1282 1278 1275 1273
1364 1367 1370 1375 1379 1384 1388 1391 1394 1396 1397 1398 1397 1396 1394 1392 1389 1387 1385 1381 1378 1375 1371 1367 1363 1359 1354 1349 1344 1338 1333 1327 1320 1314 1307 1301 1295 1289 1284 1280 1276 1273 1270
1354 1357 1361 1365 1370 1375 1380 1384 1387 1390 1391 1391 1391 1391 1389 1387 1385 1383 1381 1378 1375 1372 1368 1365 1361 1356 1352 1347 1342 1337 1331 1326 1320 1313 1307 1301 1294 1288 1283 1278 1274 1271 1267
1344 1347 1351 1355 1361 1366 1371 1376 1380 1383 1385 1385 1386 1385 1384 1383 1381 1379 1376 1374 1371 1368 1365 1362 1358 1354 1350 1346 1341 1336 1331 1325 1319 1313 1307 1301 1294 1288 1283 1277 1273 1269 1265
1336 1339 1342 1346 1351 1357 1363 1368 1372 1375 1378 1379 1380 1380 1380 1379 1377 1374 1372 1370 1368 1365 1362 1359 1356 1352 1349 1345 1340 1335 1330 1324 1319 1313 1307 1301 1295 1288 1283 1277 1273 1268 1264
1327 1330 1333 1338 1343 1349 1355 1360 1365 1369 1371 1373 1375 1375 1375 1374 1373 1371 1368 1366 1364 1362 1359 1356 1354 1350 1347 1343 1339 1334 1329 1324 1319 1313 1307 1301 1295 1289 1283 1278 1273 1268 1264
1319 1322 1326 1331 1336 1341 1347 1352 1357 1361 1364 1367 1369 1370 1370 1370 1368 1367 1365 1362 1360 1358 1356 1353 1351 1348 1345 1341 1337 1333 1328 1323 1318 1313 1307 1301 1296 1290 1284 1278 1273 1268 1264
1311 1315 1319 1323 1328 1334 1340 1345 1350 1354 1358 1360 1363 1365 1365 1365 1364 1362 1361 1359 1357 1355 1353 1350 1348 1345 1343 1339 1335 1331 1327 1322 1317 1312 1307 1302 1296 1291 1285 1280 1274 1269 1265
1304 1307 1311 1315 1320 1327 1333 1338 1343 1348 1352 1355 1357 1359 1360 1360 1360 1359 1357 1355 1353 1351 1349 1347 1345 1343 1340 1337 1334 1330 1325 1321 1317 1312 1307 1303 1297 1292 1286 1281 1275 1270 1266
1298 1301 1305 1309 1314 1320 1326 1332 1337 1341 1345 1349 1352 1354 1355 1356 1356 1355 1353 1352 1350 1348 1346 1345 1343 1341 1338 1335 1332 1329 1324 1320 1316 1312 1308 1303 1298 1293 1288 1282 1277 1272 1268
1291 1294 1298 1303 1308 1314 1319 1325 1330 1335 1340 1343 1346 1349 1351 1352 1352 1351 1350 1348 1346 1345 1343 1342 1340 1338 1336 1333 1330 1327 1323 1320 1316 1312 1308 1304 1299 1295 1290 1285 1280 1275 1270
1285 1288 1292 1297 1302 1307 1313 1319 1324 1329 1333 1338 1341 1344 1346 1347 1348 1347 1346 1345 1343 1342 1341 1339 1338 1336 1334 1331 1328 1325 1322 1319 1316 1312 1309 1305 1301 1297 1292 1287 1283 1278 1274
1279 1282 1287 1291 1296 1302 1307 1313 1318 1323 1328 1332 1336 1339 1341 1343 1344 1344 1343 1342 1341 1339 1338 1337 1336 1334 1332 1329 1327 1324 1321 1319 1316 1313 1309 1306 1302 1298 1294 1290 1286 1281 1277